Location: Bjelajci
(45.0103°N, 16.1758°E)
Time: 19:18:20
(UTC+00:00)

Cosmos 1459 Rocket - Pass Details

Date: 14 July 2020
Orbit: 938 x 999 km, 83.0° (Epoch: 05 August)

Event Time Altitude Azimuth Distance (km) Brightness Sun altitude
Exits shadow 00:52:48 31° 218° (SW) 1,598 4.6 -18.7°
Maximum altitude 00:55:37 56° 282° (WNW) 1,117 4.2 -18.4°
Drops below altitude 10° 01:01:41 10° 1° (N) 2,704 7.2 -17.9°
Sets 01:04:17 0° 5° (N) 3,663 8.2 -17.7°
